STARLINK-1282, 45409

Orbit data source: Space-Track

STARLINK-1282, 45409 is a payload satellite owned by SpaceX/Seattle (US) in LEO that was launched on Wed, 18 Mar 2020 UTC via an FALCON 9 launch vehicle from the Air Force Eastern Test Range (AFETR). Payloads include a variety of satellites, spacecraft, and rockets equipped with specific instruments for various scientific and technological missions. These include communications satellites like Starlink; space stations such as the ISS; scientific satellites like the Hubble; Earth observation satellites from companies like Planet Labs, Umbra, and HawkEye 360; GPS; miniature CubeSats for education and research; and military/defense satellites.

Loading next visibility...
STARLINK-1282 details
Identifier
45409, 2020-019BB
Orbit
LEO
Last TLE update9 hours ago
Origin
Flag of USSpaceX/Seattle (US)
ManufacturerSpaceX/Seattle
MissionOperational Commercial Communications
Bus & MotorSTARLINK, Unknown motor
Mass260 kg wet, ~248 kg dry
Launch date (UTC)
2020-03-18 (5 years ago)
Launch vehicle
FALCON 9
Launch site
Air Force Eastern Test Range (AFETR)
Object type
Payload
Rocket body
Debris
Shape & HBRBox + 1 Pan, 8.86 m
Radar Cross Section13.562 m², Large (>1 m²)

Expand to show TLE details & history

TLE from 9 hours ago
0 STARLINK-1282
1 45409U 20019BB  24336.96200010 -.00000876  00000-0 -39929-4 0  9999
2 45409  53.0537  53.8829 0001336  93.1434 266.9707 15.06397189260126
Epoch: 2024-12-01T23:05Z
Definitive object data (Epoch: 2024-12-01T23:05:16.808Z)
Latitude-0.0001°
Longitude-3.7299°
Altitude548.148 km
Speed7.589 km/s
True Right ascension03h 35m 31s
True Declination0° 00' 00"
Sunlit
Object was in full shadow at TLE epoch
Visualization TLE readout
Latitude-41.25006°
Longitude-144.42191°
Altitude561.62 km
Speed7.58 km/s
Apparent Right ascension18h 02m 30s
Apparent Declination-40° 27' 34"
Sunlit
Object is in daylight
Visualization observer readout
Local Sidereal Time05:51:33
Azimuth254.548° W
Elevation-87.84°
Doppler factor1
Orbital elements
Apogee altitude548.416 km
Perigee altitude546.566 km
Semi-major axis6,925.628 km
Eccentricity0.0001336
Inclination53.0537°
RAAN53.8829°
Arg. of periapsis93.1434°
True anomaly266.95541°
Mean anomaly266.9707°
Eccentric anomaly266.96306°
Mean motion3.76578 °/min
BSTAR-0.000039929
Orbital period95.6 mins
Loading maneuver chart data...
Loading historical data...
Loading historical data...
Loading historical data...
Loading historical data...
Loading historical data...
Loading historical data...
Loading historical data...

STARLINK-1282 Visibility forecast

Observer location: undefined°, undefined

Span
Click to sort rows by Start time (UTC) header in descending order
Start Az.
Max El. time (UTC)
Max El. Az.
Max El.
End time (UTC)
End Az.
7 mins2024-12-02 08:50:22.737Z251.815° W2024-12-02 08:54:22.737Z338.099° N35.845°2024-12-02 08:57:22.737Z37.567° NE
6 mins2024-12-02 13:53:22.737Z334.453° NNW2024-12-02 13:56:22.737Z41.469° NE26.711°2024-12-02 13:59:22.737Z90.645° ESE
6 mins2024-12-02 15:33:22.737Z286.533° WNW2024-12-02 15:35:22.737Z234.584° WSW34.721°2024-12-02 15:39:22.737Z154.121° SSE
5 mins2024-12-03 07:06:22.737Z181.673° SSW2024-12-03 07:08:22.737Z133.442° SE28.99°2024-12-03 07:11:22.737Z72.307° E
|